Location: Wiesbaden
(50.0830°N, 8.2500°E)
Time: 06:58:46
(UTC+02:00)

ISS - Pass Details

Date: 21 May 2019
Orbit: 408 x 418 km, 51.6° (Epoch: 27 May)

Event Time Altitude Azimuth Distance (km) Brightness Sun altitude
Rises 23:28:18 0° 263° (W) 2,351 0.3 -15.2°
Reaches altitude 10° 23:30:23 10° 266° (W) 1,491 -0.7 -15.3°
Maximum altitude 23:33:44 71° 352° (N) 444 -3.5 -15.6°
Drops below altitude 10° 23:37:05 10° 76° (ENE) 1,498 -1.1 -15.8°
Enters shadow 23:39:06 - 79° (E) 2,326 -0.1 -15.9°
